Regional Weather Roundup
Issued by NWS

Home | Current Version | Previous Version | Text Only | Print | Product List | Glossary Off
Versions: 1 2 3 4 5 6 7 8 9 10 11 12 13 14 15 16 17 18 19 20 21 22 23 24 25 26 27 28 29 30 31 32 33 34 35 36 37 38 39 40 41 42 43 44 45 46 47 48 49 50

000
ASUS43 KLOT 281308
RWRIL

ILLINOIS REGIONAL WEATHER ROUNDUP
NATIONAL WEATHER SERVICE CHICAGO/ROMEOVILLE IL
800 AM CDT SUN AUG 28 2016

NOTE: "FAIR" INDICATES FEW OR NO CLOUDS BELOW 12,000 FEET WITH NO
SIGNIFICANT WEATHER AND/OR OBSTRUCTIONS TO VISIBILITY.

* THESE STATIONS ARE NOT UNDER NWS QUALITY CONTROL. THEY ALSO MAY NOT
  REPORT WEATHER SUCH AS PRECIPITATION OR FOG.

ILZ001-002-007-009-015-016-024-281400-
NORTHWEST ILLINOIS

CITY           SKY/WX    TMP DP  RH WIND       PRES   REMARKS
MOLINE         SUNNY     72  68  87 E6        30.16R
STERLING*      MOSUNNY   70  70 100 E5        30.18R FOG
SAVANNA*       MOSUNNY   71  69  93 NE3       30.17R
$$

ILZ003-004-008-010-011-017-018-281400-
NORTH CENTRAL ILLINOIS

CITY           SKY/WX    TMP DP  RH WIND       PRES   REMARKS
ROCKFORD       MOSUNNY   72  69  90 E3        30.20R
FREEPORT*      MOSUNNY   68  67  99 CALM      30.21R FOG
ROCHELLE*      SUNNY     70  69  99 CALM      30.19R FOG
DE KALB*       MOSUNNY   71  70  97 E6        30.21R
$$

ILZ005-006-012>014-019>023-281400-
NORTHEAST ILLINOIS

CITY           SKY/WX    TMP DP  RH WIND       PRES   REMARKS
CHICAGO-OHARE  PTSUNNY   73  69  87 E6        30.19R
CHICAGO-MIDWAY MOSUNNY   76  70  82 E6        30.19R
AURORA         SUNNY     74  70  87 NE3       30.19R
LANSING*       MOSUNNY   74  73  97 CALM      30.18S
JOLIET*        SUNNY     76  73  93 SE6       30.18R
WAUKEGAN       SUNNY     72  69  90 E3        30.19R
DUPAGE AIRPORT PTSUNNY   72  68  87 E6        30.19R
KANKAKEE*      CLOUDY    73  71  93 CALM      30.19R
WHEELING       PTSUNNY   72  70  93 SE3       30.20R
MORRIS*        SUNNY     73  71  96 CALM      30.17R FOG
ROMEOVILLE*    SUNNY     73  73 100 SE3       30.18R
$$

LMZ740>746-281400-
SOUTHERN LAKE MICHIGAN

STATION/POSITION SKY/WX   TEMP    WIND        PRES    VSBY  WAVE
                          AIR SEA DIR/SP/G                  HT/PER
                          (F)     (DEG/KT/KT) (MB)    (MI)  (FT/S)
SOUTHERN BUOY              73 74   40/  6/  8 1021.6R         1
WILMETTE HARBOR            71 70  170/  2/  2   N/A           0
HARRISON CRIB              73     100/  2/  2   N/A
BURNHAM HARBOR             73     350/  5       N/A
CALUMET HARBOR                    100/  3/  4 1021.2R
BURNS HARBOR               73      CALM  /  4 1022.0R
MICHIGAN CITY              73     200/  3/  3   N/A
MICHIGAN CITY 6N           76 76  260/  2/  2   N/A           0
ST. JOSEPH                 74 75   10/  8/ 10 1022.0R         1
$$

ILZ025>027-034>036-040-047-049-050-058-095>099-281400-
WEST-CENTRAL ILLINOIS

CITY           SKY/WX    TMP DP  RH WIND       PRES   REMARKS
QUINCY         SUNNY     74  72  93 SE6       30.16R
GALESBURG*     MOSUNNY   72  71  99 CALM      30.17R
MACOMB*        MOSUNNY   71  71 100 CALM      30.20R
JACKSONVILLE*  CLOUDY    73  71  95 CALM      30.17S
PITTSFIELD*    MOSUNNY   72  71  98 NE3       30.17R FOG
$$

ILZ028>032-037-038-041>044-048-051>054-059>061-281400-
CENTRAL ILLINOIS

CITY           SKY/WX    TMP DP  RH WIND       PRES   REMARKS
PONTIAC        CLOUDY    74  73  97 CALM      30.18R
BLOOMINGTON    CLOUDY    74  73  97 CALM      30.19R
DECATUR        CLOUDY    73  71  93 SW3       30.18R
PEORIA         SUNNY     73  73 100 CALM      30.17R
LACON*         SUNNY     73  70  92 SE3       30.17R
LINCOLN*       LGT RAIN  71  71  97 CALM      30.17S
SPRINGFIELD    NOT AVBL
TAYLORVILLE    MOSUNNY   73  73  99 CALM      30.18S
$$

ILZ033-039-045-046-055>057-062-063-281400-
EAST-CENTRAL ILLINOIS

CITY           SKY/WX    TMP DP  RH WIND       PRES   REMARKS
CHAMPAIGN      CLOUDY    74  71  91 CALM      30.19R
RANTOUL*       CLOUDY    74  73  95 CALM      30.19R
MATTOON        SUNNY     74  71  91 E5        30.18R
PARIS*         SUNNY     73  73 100 CALM      30.20R FOG
$$

ILZ079-100>102-281400-
SOUTHWEST ILLINOIS

CITY           SKY/WX    TMP DP  RH WIND       PRES   REMARKS
ALTON          MOSUNNY   72  72 100 CALM      30.17R FOG
BELLEVILLE     SUNNY     75  74  99 E2        30.15R
CAHOKIA*       MOSUNNY   77  73  87 CALM      30.15R
SPARTA*        SUNNY     75  73  95 CALM      30.18R
$$

ILZ064>066-069>071-074>076-080>082-084>086-088>090-092>094-281400-
SOUTH-CENTRAL ILLINOIS

CITY           SKY/WX    TMP DP  RH WIND       PRES   REMARKS
CARBONDALE     SUNNY     75  73  93 CALM      30.16R FOG
CAIRO*         SUNNY     75  75 100 CALM      30.15R FOG
EFFINGHAM*     SUNNY     75  75 100 CALM      30.19R
MARION         SUNNY     75  75 100 CALM      30.17R
MT. VERNON     SUNNY     75  70  83 N3        30.18R
CENTRALIA*     SUNNY     76  75  97 CALM      30.16R
SALEM*         SUNNY     76  74  93 CALM      30.17R FOG
METROPOLIS*    SUNNY     76  74  93 CALM      30.16R
$$

ILZ067-068-072-073-078-083-087-091-281400-
SOUTHEAST ILLINOIS

CITY           SKY/WX    TMP DP  RH WIND       PRES   REMARKS
LAWRENCEVILLE  SUNNY     77  75  93 CALM      30.18R FOG
FLORA*         SUNNY     76  74  93 CALM      30.18R
FAIRFIELD*     SUNNY     76  76  98 CALM      30.16R
HARRISBURG*    CLOUDY    75  75 100 CALM      30.17R FOG
ROBINSON*      CLOUDY    72  72 100 CALM      30.19R FOG
CARMI*         SUNNY     76  76 100 CALM      30.16R FOG
$$

ABBREVIATIONS USED IN REMARKS
   TC - TEMPERATURE IN CELSIUS
  WCI - WIND CHILL INDEX
   HX - HEAT INDEX
  VSB - VISIBILITY
$$





USA.gov is the U.S. government's official web portal to all federal, state and local government web resources and services.